Lapse_Rate
5.3 5.4 5.4 5.6 5.8 6.0 6.3 6.6 6.7 7.6 8.6 8.3 8.0 8.3 7.8 7.5 7.2 6.2 5.8 5.7 5.3 5.6 5.0 4.6 4.8 5.0 5.1 5.5 5.9 6.1 6.2 5.8 5.8 5.8 5.7 5.4 5.8 5.2 5.1 5.6 5.9 5.7 5.8 5.7
5.5 5.3 5.7 6.0 6.0 6.2 6.5 6.6 6.8 7.2 8.1 9.4 9.1 8.8 8.3 8.1 7.9 7.3 7.0 6.1 5.4 5.3 5.1 4.9 4.7 5.1 5.3 5.7 6.0 5.9 6.3 6.1 5.9 5.7 5.8 5.5 5.6 5.6 5.1 5.3 6.1 5.9 6.2 5.9
5.6 6.1 6.5 6.3 6.3 6.5 6.7 6.8 7.1 7.2 8.0 8.9 9.5 8.9 8.6 8.1 7.5 7.7 7.6 6.5 5.3 5.9 5.8 5.4 4.8 5.3 5.2 5.9 5.9 6.0 6.2 6.1 6.0 5.8 5.7 5.7 5.7 5.5 5.4 5.6 5.7 5.8 5.8 5.8
6.0 6.1 6.3 6.5 6.5 6.7 6.8 7.3 7.5 7.8 7.7 7.7 9.1 8.7 8.7 8.5 8.7 7.5 7.3 6.9 5.8 5.1 6.1 5.8 5.3 5.3 5.6 6.3 5.8 5.8 6.1 6.0 6.0 5.8 5.9 5.9 5.9 5.9 6.0 5.9 5.7 5.8 5.7 5.6
6.3 6.5 6.6 6.6 6.8 7.1 6.9 7.3 7.6 7.6 8.0 7.9 8.1 8.5 8.6 8.8 7.8 7.9 7.0 7.2 6.4 5.5 5.3 6.0 5.9 5.7 5.9 6.0 6.1 5.8 6.1 5.9 5.9 5.9 5.9 5.9 5.9 5.9 5.7 5.8 6.0 5.6 5.7 5.7
6.3 6.5 6.5 6.9 7.0 7.2 7.2 7.3 7.5 7.4 7.4 6.9 7.7 7.8 7.5 7.4 9.1 8.4 7.6 7.4 6.8 6.0 5.2 6.3 6.3 5.6 5.6 6.0 6.1 5.9 6.0 6.1 5.9 6.0 5.9 6.0 5.9 6.0 6.0 6.0 6.0 5.6 5.8 5.7
7.3 7.3 7.6 7.2 6.8 7.1 7.2 7.2 7.1 6.4 6.4 5.7 7.1 8.0 7.4 8.0 8.4 8.8 8.4 7.8 7.5 6.8 5.8 5.6 6.6 5.9 5.5 6.4 6.6 6.3 6.3 6.4 6.0 6.1 6.0 6.0 5.9 5.9 5.9 6.0 6.1 6.0 5.9 5.8
7.1 6.9 7.8 8.7 7.9 7.8 7.5 7.5 7.2 5.8 5.5 6.1 7.4 7.6 7.3 8.1 8.6 8.6 8.3 8.0 6.9 7.6 7.0 6.2 6.8 7.3 6.5 7.0 7.0 6.5 6.4 6.5 6.3 6.2 6.2 6.0 5.9 5.7 5.9 5.7 6.0 6.0 5.9 5.7
7.1 6.9 7.5 7.7 7.9 8.0 7.8 7.7 7.4 8.0 7.6 6.9 7.8 8.4 7.9 8.4 8.7 9.0 8.6 8.0 7.7 7.4 6.4 6.0 6.9 7.4 7.4 7.2 7.4 7.2 6.6 6.5 6.3 6.1 6.1 6.1 5.9 5.8 5.9 6.0 5.9 5.9 5.9 5.7
6.7 5.9 7.6 7.8 8.2 7.8 8.1 7.8 8.1 8.2 6.6 6.2 7.3 7.8 7.5 8.6 9.1 9.1 8.9 8.8 8.5 7.6 7.0 7.0 6.6 6.6 7.4 7.7 7.6 7.4 7.1 6.6 6.5 6.0 6.0 6.1 6.0 6.1 6.0 5.7 6.0 6.0 5.9 5.9
6.4 6.2 6.8 7.4 8.0 8.0 8.1 8.8 9.0 8.5 8.4 7.3 6.8 7.3 7.6 8.5 8.8 8.9 9.5 9.2 8.6 8.0 8.1 7.1 6.8 7.1 6.4 8.0 7.5 7.4 7.3 6.8 6.4 6.1 5.9 6.0 6.0 5.9 5.9 5.8 5.8 5.9 5.7 5.9
6.4 5.9 6.2 6.5 7.8 7.8 7.6 7.5 9.0 8.9 8.3 8.5 7.8 6.6 8.9 8.6 8.8 9.0 9.1 9.3 9.3 8.8 8.7 8.4 7.2 7.0 6.7 6.4 7.5 7.5 7.4 7.2 6.8 6.1 6.0 5.7 5.9 5.8 5.8 6.0 6.1 5.9 5.8 5.7
6.4 6.4 6.2 6.5 7.4 8.0 7.9 7.8 8.6 9.2 8.8 8.4 7.7 7.2 8.1 8.3 8.6 8.1 8.2 8.3 8.9 9.0 8.8 8.4 7.5 6.5 6.5 6.8 7.4 7.6 7.5 7.6 7.1 6.7 6.4 6.1 5.9 6.2 6.1 6.2 6.2 6.2 6.0 5.8
6.2 6.4 6.1 6.0 6.6 6.9 7.0 7.4 8.0 8.8 8.6 8.4 8.6 8.4 7.8 8.1 8.7 8.9 8.2 8.5 8.6 9.0 8.9 8.8 8.2 5.5 4.8 6.2 6.9 6.8 7.7 7.7 7.8 7.0 6.7 6.5 6.4 6.4 6.4 6.3 6.1 6.2 6.2 6.1
5.9 6.4 6.6 6.5 5.8 7.1 6.7 6.7 6.8 7.2 7.9 8.4 8.4 8.7 7.9 7.9 8.7 8.8 7.6 7.4 7.9 7.6 7.9 7.8 7.6 7.9 7.1 6.9 6.8 7.9 6.0 6.9 7.7 7.8 7.2 6.9 6.5 6.4 6.5 6.4 6.3 6.4 6.4 6.3
5.9 6.2 6.7 6.7 6.9 7.6 7.4 6.8 6.8 6.9 6.9 7.6 8.1 8.0 7.6 7.6 8.3 8.4 8.0 7.2 7.2 6.9 6.9 7.1 7.1 7.9 6.7 6.5 7.0 7.5 6.9 5.8 7.2 8.0 7.8 7.1 6.8 6.4 6.3 6.6 6.6 6.3 6.5 6.4
6.4 6.9 7.2 7.0 7.6 7.7 7.4 7.2 7.1 7.1 6.8 7.1 7.3 7.5 7.9 6.7 7.5 7.8 7.4 7.0 7.0 6.9 6.9 6.9 7.2 7.0 7.4 6.4 6.9 7.1 6.2 6.4 7.1 7.5 7.6 7.5 7.1 6.8 6.3 6.2 6.5 6.6 6.6 6.9
6.8 7.3 7.4 7.2 7.4 7.0 7.2 7.3 7.4 7.4 7.2 7.4 7.5 7.3 7.3 6.1 6.5 7.3 7.1 6.7 6.9 6.6 6.8 6.7 7.3 6.4 6.3 5.4 5.1 6.4 6.4 5.6 6.9 7.5 7.5 7.7 7.6 7.2 6.7 6.4 6.5 6.7 6.6 6.7
7.2 7.4 7.4 7.5 7.6 7.5 8.1 8.0 7.3 7.1 7.5 7.3 7.3 7.3 6.8 6.5 5.8 6.9 6.4 6.4 6.4 6.5 6.1 6.3 6.5 7.1 6.4 5.5 5.1 5.2 5.9 6.0 6.3 7.1 7.4 7.7 7.9 7.5 7.2 6.8 6.8 6.7 6.8 6.8
7.4 7.4 7.0 7.0 7.5 7.6 8.0 7.7 7.5 7.0 7.1 6.9 7.0 7.1 6.5 6.1 6.1 6.6 6.7 5.7 5.1 6.1 5.8 5.9 6.3 6.5 6.8 6.2 5.6 6.4 7.4 6.8 7.1 6.5 7.0 7.2 7.5 7.8 7.6 7.3 6.9 6.8 6.8 6.9
6.6 6.8 6.9 6.9 7.1 7.1 7.6 7.7 7.3 7.1 6.5 7.1 6.9 7.1 6.2 6.0 5.7 6.0 6.5 6.3 5.2 5.8 5.9 5.9 5.6 6.4 6.8 7.2 7.5 6.5 6.6 7.1 6.7 7.0 6.8 6.9 7.1 7.8 8.2 7.7 7.1 6.8 6.6 6.6
6.0 6.3 6.6 6.8 7.0 7.1 7.3 7.5 7.2 6.7 7.1 7.2 7.0 6.9 6.6 6.1 6.2 6.1 5.7 6.0 5.6 6.2 5.9 6.1 6.1 6.1 6.4 7.3 8.0 8.3 7.5 6.1 6.9 7.5 7.1 6.9 7.0 7.8 8.3 8.1 7.6 7.1 6.7 6.5
6.2 6.0 5.7 5.9 6.7 6.6 6.8 6.2 6.6 6.4 6.6 7.3 6.9 6.8 6.7 6.2 6.2 6.1 6.3 5.8 6.1 5.9 6.1 6.3 6.5 6.6 6.2 6.7 7.3 7.8 7.8 7.2 6.7 7.6 8.0 7.5 7.4 7.5 8.3 8.3 8.1 7.5 7.0 6.6
6.3 6.3 6.0 5.9 5.9 5.9 6.0 6.5 6.6 6.6 6.7 6.9 7.0 6.9 6.9 6.6 6.2 5.9 5.7 5.6 5.0 5.8 6.4 6.5 6.5 7.0 7.0 6.7 6.8 7.1 7.6 7.8 7.4 7.3 8.0 7.8 7.7 7.8 8.2 8.5 8.2 7.8 7.3 7.1
6.0 6.1 5.9 5.8 5.7 6.2 6.1 5.8 6.1 6.5 6.5 6.7 6.7 6.7 6.8 6.6 6.4 5.7 5.6 4.9 4.5 4.9 6.0 6.7 6.3 6.9 7.2 7.1 6.7 6.7 7.0 7.5 7.5 7.3 7.5 7.8 8.0 7.7 7.7 8.3 8.4 8.2 7.8 7.5
5.8 5.5 5.6 5.3 5.4 5.4 5.7 5.9 5.9 5.8 6.0 6.0 6.0 6.9 7.1 6.8 6.8 6.1 5.5 4.9 4.1 4.4 5.0 6.3 6.8 7.2 7.2 7.5 7.1 6.8 7.0 7.3 7.6 7.5 7.8 7.5 7.6 7.8 7.9 7.9 8.3 8.3 8.1 7.8
Wind_Speed
6 3 8 9 10 10 14 15 13 11 12 9 15 18 24 21 19 23 21 18 18 20 14 14 22 21 16 18 15 14 13 11 9 3 3 2 4 3 3 6 14 14 16 11
6 11 9 10 13 12 17 16 16 14 14 9 9 13 20 18 21 25 23 14 15 21 18 16 19 21 18 19 15 13 15 11 9 6 3 3 3 3 5 7 10 12 13 15
10 11 18 15 12 15 15 11 13 12 19 14 6 4 9 12 8 9 7 9 4 24 21 18 15 22 18 20 16 14 15 12 9 11 4 2 1 2 3 3 4 7 15 14
10 15 15 16 16 14 9 10 12 14 10 5 5 4 6 12 8 15 12 8 5 11 23 19 17 21 20 20 18 15 16 15 10 11 8 5 4 4 4 8 4 5 13 13
8 11 12 16 13 15 12 10 9 10 9 5 18 3 6 16 7 7 15 9 11 16 19 24 22 19 21 20 19 16 17 16 15 10 10 6 5 4 3 5 8 6 5 14
9 11 6 7 12 12 6 7 11 7 2 5 11 2 10 11 17 9 12 18 7 25 21 26 25 20 19 19 19 18 17 18 15 12 9 9 9 7 4 6 6 6 4 5
6 10 11 11 9 6 7 4 3 4 5 10 8 7 10 6 21 26 30 26 33 32 13 22 25 22 19 22 22 20 20 18 18 15 12 9 11 9 7 5 8 10 4 3
4 9 8 4 6 6 7 7 5 7 5 9 9 8 9 12 14 25 31 33 23 23 19 27 27 25 22 24 23 23 22 20 20 18 16 9 9 7 6 5 5 8 8 7
7 6 17 15 16 13 9 7 8 6 9 7 6 9 18 11 9 18 24 21 21 21 20 23 27 25 24 22 24 24 23 21 19 19 15 13 7 11 7 7 5 6 7 7
8 5 6 14 15 10 9 5 3 3 7 12 5 11 6 6 13 14 20 24 23 15 8 10 4 20 24 21 20 20 22 22 20 19 16 14 12 11 9 8 7 7 7 6
5 3 9 9 4 9 12 3 4 2 3 10 9 7 9 8 7 18 19 27 24 16 16 13 8 5 16 23 21 20 20 22 20 19 17 17 14 8 6 8 8 7 5 7
9 4 5 13 18 17 15 12 9 4 8 4 3 6 23 13 19 31 12 25 26 21 14 9 7 9 11 20 22 23 21 22 22 20 18 18 16 13 12 8 8 8 8 6
7 4 4 9 9 1 6 12 13 2 3 9 5 5 12 14 16 20 23 23 16 19 19 21 17 21 16 25 23 24 23 23 23 21 20 18 17 18 16 16 7 9 7 7
6 3 4 5 11 10 12 22 22 11 6 9 10 12 10 13 15 19 18 23 17 22 24 23 21 21 17 18 15 20 22 22 22 22 21 20 20 18 18 16 15 8 10 8
4 4 8 14 17 16 17 19 23 20 11 3 10 11 3 6 11 13 12 16 20 13 4 2 4 12 29 10 4 5 16 20 21 21 21 21 19 18 16 17 15 16 11 13
1 5 7 13 17 19 20 18 19 21 19 11 12 15 7 8 13 15 12 11 13 10 6 5 13 12 5 11 9 3 8 18 20 21 21 20 19 19 18 16 15 15 13 14
1 2 3 5 10 15 15 14 16 20 19 11 10 5 10 11 14 16 14 10 13 12 17 4 3 9 8 7 9 4 11 18 19 20 20 20 20 19 19 17 16 15 17 12
7 4 4 4 4 5 7 16 17 19 20 16 12 9 13 14 14 10 18 8 14 14 19 15 8 8 8 7 6 7 5 13 20 18 19 20 20 20 18 18 18 17 15 17
6 2 2 3 4 8 11 5 11 10 8 17 19 18 16 15 10 9 27 25 3 5 14 17 15 8 3 4 4 6 2 11 8 16 19 19 20 19 18 19 18 16 15 15
10 6 4 2 4 5 6 7 11 8 2 18 17 13 15 14 6 7 22 23 9 13 16 12 18 12 14 10 7 6 2 1 12 15 16 17 19 19 20 21 19 17 15 15
5 2 6 7 5 5 14 14 4 7 6 15 14 11 11 7 3 14 17 19 15 11 11 11 12 11 12 13 10 7 4 8 18 11 13 15 18 19 19 17 17 16 15 14
3 4 3 4 6 5 20 10 7 8 14 13 12 13 10 6 12 14 15 19 14 14 15 14 12 11 12 14 14 14 10 12 12 10 10 14 16 15 14 18 16 16 15 15
1 2 3 2 5 11 10 11 11 13 12 15 15 15 13 7 6 11 13 13 12 10 10 10 11 12 11 12 11 12 14 13 14 13 12 11 14 15 15 17 16 13 14 13
2 3 2 4 3 13 14 10 13 16 15 16 17 18 18 15 5 7 9 11 10 7 8 7 8 10 10 11 11 11 13 14 13 15 11 13 13 13 14 13 13 13 13 14
3 4 3 5 9 14 3 14 15 16 17 17 17 21 23 15 8 7 5 7 6 6 8 6 7 8 10 11 11 11 13 13 13 15 10 13 11 12 12 12 13 13 14 14
3 4 2 3 6 8 11 12 16 15 16 17 21 26 14 13 10 7 5 4 3 6 7 8 8 9 12 12 12 12 13 12 12 13 7 5 7 8 10 10 5 7 9 15
Wind_Direction
218 239 217 227 246 254 269 279 288 279 246 241 202 151 177 169 138 153 186 246 209 194 206 183 163 162 159 151 159 146 152 160 147 158 156 137 164 158 148 144 162 161 155 155
239 228 241 223 241 236 254 269 281 288 289 187 229 167 165 168 162 168 186 183 222 185 192 192 167 165 160 160 160 154 157 161 156 158 166 161 178 160 178 169 175 177 159 167
221 234 223 237 241 244 247 244 270 278 301 310 235 76 147 194 160 174 155 176 315 180 189 192 176 170 162 166 163 159 157 164 157 169 157 174 173 73 109 170 181 202 159 168
228 231 251 224 235 248 257 262 259 268 290 279 26 281 212 183 165 167 165 80 350 346 186 191 183 173 171 170 169 156 158 167 171 168 177 167 178 160 178 176 184 181 170 159
257 224 245 245 251 218 250 279 282 283 287 306 295 25 263 158 148 213 143 79 304 296 243 190 189 177 174 170 173 167 160 171 178 172 177 174 184 180 181 162 171 178 186 168
298 311 288 261 276 262 270 251 274 295 320 292 268 171 280 171 186 156 132 125 284 258 249 193 187 182 173 170 172 175 164 176 176 180 171 181 185 198 182 179 164 176 183 170
275 265 277 293 314 280 261 288 306 296 284 255 266 265 235 266 187 168 168 183 192 212 227 196 186 186 174 173 176 179 176 176 182 183 186 186 193 185 194 170 173 167 173 179
293 313 216 256 226 262 253 208 181 229 232 263 250 263 262 251 178 174 179 188 202 196 204 198 185 185 184 178 179 181 184 180 181 186 193 193 197 195 192 180 172 170 180 189
4 285 339 325 332 237 255 264 240 240 275 279 274 277 258 249 272 176 182 187 200 209 202 190 184 182 187 183 186 184 184 186 184 186 189 196 198 196 189 194 190 184 178 187
345 336 336 337 333 327 187 236 308 288 223 260 287 287 268 267 237 195 201 187 193 192 135 132 26 194 185 189 189 187 183 186 185 185 191 194 200 203 184 184 208 185 189 177
40 44 299 334 314 335 337 289 294 262 240 243 264 269 259 247 327 295 198 192 186 179 161 155 158 249 212 188 185 188 182 184 187 189 188 195 197 197 186 191 197 195 199 149
9 298 319 293 296 303 300 288 239 191 278 245 209 272 279 320 4 352 231 189 180 179 149 144 137 279 280 216 186 186 184 186 188 188 189 193 195 194 202 201 198 192 198 170
354 328 346 320 320 314 327 330 312 263 307 266 255 252 339 16 14 3 1 20 187 160 154 150 179 199 242 258 194 188 187 187 185 184 190 190 192 197 201 205 197 199 192 194
359 288 269 262 288 329 317 318 321 312 243 269 267 262 7 358 6 0 4 8 11 163 164 167 166 167 228 232 195 200 193 184 184 185 187 193 196 195 202 204 205 198 193 188
35 288 304 296 295 303 298 301 305 306 293 255 286 292 332 3 357 357 14 17 20 69 61 350 230 239 185 156 122 56 211 191 183 187 190 194 194 197 194 201 200 206 201 202
344 314 329 299 298 297 284 279 287 291 290 296 299 295 322 11 10 359 356 9 10 5 41 168 253 217 241 192 145 341 273 209 187 188 194 193 190 195 199 195 197 199 205 206
146 164 353 276 311 313 287 269 279 280 285 281 288 323 358 9 16 349 340 10 353 350 334 52 340 168 193 196 124 280 261 244 195 194 193 193 192 192 196 195 197 194 203 204
262 189 155 288 288 276 267 321 290 283 288 319 291 13 20 14 353 352 344 338 315 356 2 1 16 35 44 179 212 184 268 297 193 191 193 194 194 195 192 193 197 200 196 207
267 219 247 188 221 267 289 301 16 3 320 30 32 25 5 353 358 28 349 339 172 32 5 349 343 352 32 28 86 116 349 251 279 186 192 191 192 192 190 196 197 198 199 203
10 22 163 331 255 255 62 332 313 340 254 8 20 29 10 353 39 346 337 341 335 306 307 3 342 5 38 38 4 4 334 348 304 226 188 188 188 190 191 194 195 197 203 205
312 304 248 221 240 283 345 328 293 278 336 345 354 3 13 9 335 302 331 333 355 16 4 2 358 15 23 14 6 62 352 241 262 207 192 184 186 191 191 190 194 195 200 205
324 338 329 302 219 258 4 15 9 326 317 321 331 332 340 1 324 325 336 334 352 353 352 353 356 6 18 16 2 353 5 339 322 264 191 191 188 191 187 187 190 195 197 203
63 77 296 267 295 3 1 319 343 352 334 319 321 319 310 306 309 315 322 329 336 351 343 348 354 3 5 8 358 342 339 338 330 323 225 188 188 192 188 187 187 191 196 202
265 79 242 303 28 334 323 351 341 329 319 304 297 309 299 291 280 295 301 312 327 330 331 347 357 1 353 349 352 340 336 336 332 314 254 200 190 185 190 187 189 190 197 204
239 307 275 256 276 311 239 332 327 321 318 309 300 299 280 259 250 250 282 296 320 345 340 349 2 359 347 341 342 340 333 339 335 317 236 198 194 188 191 186 189 197 206 202
210 225 209 262 315 305 301 312 325 315 313 310 325 302 235 222 237 213 236 288 55 6 348 6 9 353 344 335 333 333 333 340 339 331 333 208 184 183 192 194 173 33 225 197